EW7806 Weather Reports


Display with metric or nautical units.
time (UTC)temp
F
wind
direction
speed
MPH
gust
MPH
rain 1hr
in
rain 24hr
in
rain mn
in
humidity
%
barometer
mb
20260831040539 61 29 0.0 0.0 0.03 0.06 0.06 91 1005.8
20260831040048 61 20 0.0 0.0 0.03 0.06 0.06 91 1005.9
20260831035543 61 172 0.0 0.0 0.03 0.06 0.06 91 1006.0
20260831034526 62 46 0.0 0.0 0.03 0.06 0.06 91 1006.1
20260831033938 62 41 0.0 0.0 0.03 0.06 0.05 91 1006.1
20260831032940 62 106 0.0 0.0 0.02 0.06 0.05 91 1006.1
20260831032438 62 37 0.0 0.0 0.02 0.06 0.05 91 1006.1
20260831031914 62 46 0.0 0.0 0.02 0.06 0.05 91 1006.1
20260831031411 62 39 0.0 0.0 0.02 0.06 0.05 91 1006.1
20260831030852 62 70 0.0 0.0 0.01 0.04 0.02 91 1006.2
20260831030338 62 55 0.0 0.0 0.00 0.04 0.02 91 1006.1
20260831025816 62 51 0.0 0.0 0.00 0.04 0.02 91 1006.1
20260831025312 62 75 0.0 0.0 0.00 0.04 0.02 91 1006.2
20260831024818 62 46 0.0 0.0 0.00 0.04 0.02 91 1006.4
20260831023809 62 39 0.0 0.0 0.00 0.04 0.02 91 1006.3
20260831023312 62 90 0.0 0.0 0.00 0.04 0.02 91 1006.4
20260831022308 62 60 0.0 0.0 0.00 0.04 0.02 91 1006.6
20260831021307 62 30 0.0 0.0 0.00 0.04 0.02 91 1006.6
20260831020807 62 133 0.0 0.0 0.00 0.04 0.02 91 1006.6
20260831020305 62 32 0.0 0.0 0.00 0.04 0.02 91 1006.6
20260831015736 62 120 0.0 0.0 0.00 0.04 0.00 91 1006.8
20260831015234 62 84 0.0 0.0 0.00 0.04 0.00 91 1007.0
20260831014733 62 43 0.0 0.0 0.00 0.04 0.00 91 1007.0
20260831014233 62 43 0.0 0.0 0.00 0.04 0.00 91 1007.1
20260831013716 62 43 0.0 0.0 0.01 0.04 0.00 91 1007.1
20260831013220 62 41 0.0 0.0 0.02 0.04 0.00 91 1007.1
20260831012709 62 41 0.0 0.0 0.02 0.04 0.00 91 1007.0
20260831012211 62 36 0.0 0.0 0.02 0.04 0.00 91 1007.1
20260831011234 63 37 0.0 0.0 0.02 0.04 0.00 91 1007.0
20260831010708 63 37 0.0 0.0 0.02 0.04 0.00 91 1007.0
20260831010215 63 35 0.0 0.0 0.02 0.04 0.02 91 1006.9
20260831005211 63 35 0.0 0.0 0.02 0.04 0.02 91 1007.0
20260831004710 63 32 0.0 0.0 0.02 0.04 0.02 91 1007.3
20260831004208 63 44 0.0 0.0 0.02 0.04 0.02 91 1007.2
20260831003708 63 18 0.0 0.0 0.02 0.03 0.02 91 1007.3
20260831003209 63 35 0.0 0.0 0.01 0.02 0.01 91 1007.3
20260831002707 63 30 0.0 0.0 0.01 0.02 0.01 90 1007.4
20260831002208 63 19 0.0 0.0 0.01 0.02 0.00 90 1007.4
20260831001709 63 16 0.0 0.0 0.00 0.02 0.00 90 1007.4
20260831001208 63 13 0.0 0.0 0.00 0.02 0.00 90 1007.4
20260831000708 63 32 0.0 0.0 0.00 0.02 0.00 90 1007.4
20260831000211 63 45 0.0 0.0 0.00 0.02 0.00 90 1007.4
20260830235704 63 87 0.0 0.0 0.00 0.02 0.00 90 1007.5
20260830235206 63 63 0.0 0.0 0.00 0.02 0.00 90 1007.5
20260830234711 63 67 0.0 0.0 0.00 0.02 0.00 91 1007.6
20260830233710 63 70 0.0 0.0 0.00 0.02 0.00 91 1007.6
20260830232710 63 42 0.0 0.0 0.00 0.03 0.00 91 1007.7
20260830232208 63 52 0.0 0.0 0.00 0.06 0.00 91 1007.6
20260830231210 63 60 0.0 0.0 0.00 0.09 0.00 91 1007.7
20260830230138 63 79 0.0 0.0 0.00 0.20 0.00 91 1007.8
20260830225617 63 51 0.0 0.0 0.00 0.26 0.00 91 1007.9
20260830225111 63 51 0.0 0.0 0.00 0.28 0.00 91 1007.9
20260830224608 63 91 0.0 0.0 0.00 0.30 0.00 91 1007.9
20260830224108 63 89 0.0 0.0 0.00 0.31 0.00 91 1008.0
20260830223535 63 37 0.0 0.0 0.01 0.48 0.00 90 1008.2
20260830222508 64 77 0.0 0.0 0.01 0.51 0.00 90 1008.3
20260830221932 64 32 0.0 0.0 0.01 0.51 0.00 90 1008.4
20260830221433 64 32 0.0 0.0 0.01 0.51 0.00 90 1008.4
20260830220409 64 39 0.0 0.0 0.01 0.51 0.00 90 1008.6
20260830215907 64 30 0.0 4.0 0.01 0.51 0.51 90 1008.6
20260830215416 64 51 0.0 4.0 0.01 0.51 0.51 89 1008.6
20260830214335 65 22 0.0 4.0 0.01 0.58 0.51 88 1008.7
20260830213832 65 30 0.0 1.0 0.01 0.62 0.51 88 1008.7
20260830213334 65 60 0.0 1.0 0.00 0.72 0.50 88 1008.7
20260830212307 65 65 0.0 0.0 0.00 0.77 0.50 87 1008.7
20260830211733 65 48 0.0 0.0 0.00 0.77 0.50 87 1008.7
20260830211233 65 48 0.0 0.0 0.00 0.77 0.50 86 1008.8
20260830210709 65 48 0.0 0.0 0.00 0.77 0.50 86 1008.7
20260830210210 65 47 0.0 0.0 0.00 0.77 0.50 86 1008.8
20260830205708 65 47 0.0 0.0 0.00 0.78 0.50 86 1008.8
20260830205207 65 48 0.0 0.0 0.00 0.79 0.50 86 1008.8
20260830204146 65 30 0.0 0.0 0.00 0.79 0.50 86 1008.9
20260830203134 65 39 0.0 0.0 0.00 0.80 0.50 86 1009.0
20260830202111 65 40 0.0 0.0 0.00 0.80 0.50 87 1009.2
20260830201106 65 40 0.0 0.0 0.00 0.82 0.50 87 1009.3
20260830200608 65 28 0.0 0.0 0.00 0.84 0.50 87 1009.5
20260830200114 65 28 0.0 0.0 0.00 0.84 0.50 87 1009.5
20260830195608 65 28 0.0 0.0 0.00 0.86 0.50 87 1009.5
20260830195112 65 28 0.0 0.0 0.00 0.87 0.50 87 1009.4
20260830194617 65 27 0.0 0.0 0.00 0.87 0.50 87 1009.5
20260830194112 65 27 0.0 0.0 0.00 0.88 0.50 87 1009.5
20260830193108 65 25 0.0 0.0 0.00 0.89 0.50 87 1009.5
20260830192604 65 25 0.0 0.0 0.00 0.89 0.50 87 1009.6
20260830192046 65 25 0.0 0.0 0.00 0.90 0.50 87 1009.6
20260830191544 65 25 0.0 0.0 0.00 0.90 0.50 87 1009.6
20260830191041 65 25 0.0 0.0 0.00 0.90 0.50 86 1009.6
20260830190521 65 25 0.0 0.0 0.00 0.90 0.50 86 1009.7
20260830190029 65 25 0.0 0.0 0.00 0.90 0.50 86 1009.7
20260830185530 66 25 0.0 0.0 0.00 0.90 0.50 86 1009.6
20260830185029 66 45 0.0 0.0 0.00 0.90 0.50 85 1009.7
20260830184525 66 45 0.0 0.0 0.00 0.90 0.50 85 1009.6
20260830184030 66 45 0.0 1.0 0.00 0.90 0.50 85 1009.6
20260830183524 66 45 0.0 1.0 0.00 0.90 0.50 85 1009.6
20260830183024 66 45 0.0 0.0 0.00 0.90 0.50 85 1009.7
20260830182530 66 41 0.0 2.0 0.00 0.90 0.50 85 1009.7
20260830181517 67 37 0.0 0.0 0.00 0.90 0.50 84 1009.7
20260830181035 67 37 0.0 3.0 0.00 0.90 0.50 84 1009.7
20260830180520 67 11 0.0 3.0 0.00 0.90 0.50 84 1009.8
20260830180009 67 34 0.0 3.0 0.00 0.90 0.50 84 1009.8
20260830175457 67 48 0.0 3.0 0.00 0.90 0.50 84 1009.8
20260830174938 67 12 0.0 3.0 0.00 0.90 0.50 84 1009.9
20260830174436 67 30 0.0 3.0 0.00 0.90 0.50 84 1009.9
20260830173907 67 26 0.0 1.0 0.00 0.91 0.50 84 1009.9
20260830173413 67 30 0.0 4.0 0.00 0.91 0.50 83 1010.0
20260830172334 67 43 0.0 2.0 0.00 0.93 0.50 83 1010.0
20260830171835 67 75 0.0 0.0 0.00 0.94 0.50 83 1010.0
20260830171337 67 148 0.0 5.0 0.00 0.94 0.50 83 1010.0
20260830170838 67 33 0.0 5.0 0.00 0.94 0.50 82 1010.1
20260830170334 67 59 0.0 3.0 0.00 0.94 0.50 82 1010.1
20260830165810 67 180 0.0 3.0 0.00 0.94 0.50 81 1010.0
20260830165307 68 20 0.0 0.0 0.00 0.94 0.50 82 1010.1
20260830164808 68 57 0.0 12.0 0.00 0.94 0.50 81 1010.2
20260830164258 68 148 0.0 2.0 0.00 0.94 0.50 82 1010.2
20260830163735 68 187 0.0 2.0 0.00 0.94 0.50 81 1010.1
20260830163235 68 6 0.0 5.0 0.00 0.94 0.50 82 1010.2
20260830162735 68 155 0.0 5.0 0.00 0.94 0.50 81 1010.1
20260830162211 68 68 1.0 6.0 0.00 0.94 0.50 81 1010.1
20260830161214 68 11 0.0 9.0 0.00 0.94 0.50 82 1010.1
20260830160716 68 169 0.0 5.0 0.00 0.94 0.50 82 1010.2
20260830160208 68 135 0.0 5.0 0.00 0.94 0.50 82 1010.2
20260830155711 68 51 0.0 7.0 0.00 0.94 0.50 82 1010.1
20260830155206 68 144 0.0 7.0 0.00 0.94 0.50 84 1010.2
20260830154635 68 148 0.0 7.0 0.00 0.94 0.50 83 1010.3
20260830154135 68 201 0.0 7.0 0.00 0.94 0.50 82 1010.3
20260830153610 68 161 0.0 3.0 0.00 0.94 0.50 81 1010.3
20260830153107 68 156 0.0 4.0 0.00 0.94 0.50 81 1010.3
20260830152106 68 138 0.0 3.0 0.00 0.94 0.50 82 1010.4
20260830151548 68 138 0.0 4.0 0.00 0.94 0.50 82 1010.3
20260830151035 68 180 0.0 4.0 0.00 0.94 0.50 82 1010.4
20260830150538 68 105 0.0 9.0 0.00 0.94 0.50 82 1010.3
20260830150049 68 167 0.0 9.0 0.00 0.94 0.50 82 1010.3
20260830145037 68 176 1.0 3.0 0.00 0.95 0.50 83 1010.2
20260830144523 68 181 0.0 6.0 0.00 0.95 0.50 83 1010.2
20260830144025 68 207 0.0 6.0 0.00 0.95 0.50 83 1010.2
20260830143524 68 181 0.0 5.0 0.00 0.95 0.50 83 1010.3
20260830142526 68 115 0.0 6.0 0.00 0.95 0.50 83 1010.2
20260830142038 68 186 0.0 2.0 0.00 0.95 0.50 85 1010.1
20260830141541 68 195 0.0 0.0 0.00 0.95 0.50 85 1010.1
20260830140531 68 156 0.0 3.0 0.00 0.97 0.50 85 1010.1
20260830140013 68 176 0.0 7.0 0.00 0.97 0.50 85 1010.1
20260830135523 68 185 0.0 7.0 0.00 0.97 0.50 85 1010.2
20260830134027 67 180 0.0 6.0 0.00 0.97 0.50 86 1010.1
20260830133528 67 195 0.0 0.0 0.00 0.97 0.50 85 1010.1
20260830132528 68 238 1.0 7.0 0.00 0.97 0.50 85 1010.1
20260830132022 68 113 1.0 7.0 0.00 0.97 0.50 84 1010.1
20260830131520 68 207 0.0 7.0 0.00 0.97 0.50 85 1010.0
20260830131026 68 161 0.0 5.0 0.00 0.97 0.50 85 1010.1
20260830130528 68 153 0.0 4.0 0.00 0.97 0.50 84 1010.0
20260830130009 68 162 0.0 4.0 0.00 0.97 0.50 84 1010.0
20260830125523 68 131 0.0 2.0 0.00 0.97 0.50 86 1010.0
20260830125024 68 165 0.0 2.0 0.00 0.97 0.50 86 1010.0
20260830124524 68 204 0.0 8.0 0.00 0.97 0.50 86 1010.0
20260830123535 67 189 0.0 1.0 0.00 0.97 0.50 86 1009.8
20260830123023 67 202 0.0 1.0 0.00 0.97 0.50 86 1009.9
20260830122528 67 169 0.0 0.0 0.00 0.97 0.50 86 1009.8
20260830122026 67 184 0.0 1.0 0.00 0.97 0.50 87 1009.8
20260830121516 67 195 0.0 0.0 0.00 0.97 0.50 87 1009.7
20260830120936 68 172 0.0 5.0 0.00 0.97 0.50 85 1009.8
20260830120434 68 155 0.0 5.0 0.00 0.97 0.50 83 1009.7
20260830115942 68 164 0.0 5.0 0.00 0.97 0.50 82 1009.6
20260830115408 68 165 1.0 5.0 0.00 0.97 0.50 83 1009.6
20260830114409 69 129 0.0 7.0 0.00 0.97 0.50 82 1009.4
20260830113911 69 240 0.0 6.0 0.00 0.97 0.50 83 1009.3
20260830113412 69 99 0.0 6.0 0.00 0.97 0.50 83 1009.2
20260830112906 69 98 0.0 7.0 0.00 0.97 0.50 83 1009.2
20260830112333 69 192 0.0 7.0 0.00 0.97 0.50 83 1009.1
20260830111834 69 215 0.0 7.0 0.00 0.97 0.50 83 1009.1
20260830111334 69 229 0.0 7.0 0.00 0.97 0.50 83 1009.0
20260830110837 69 217 1.0 5.0 0.00 0.97 0.50 83 1009.0
20260830110346 69 253 1.0 7.0 0.00 0.97 0.50 83 1009.0
20260830105819 69 230 0.0 6.0 0.00 0.97 0.50 83 1008.9
20260830105309 69 192 0.0 5.0 0.00 0.97 0.50 85 1008.9
20260830104309 68 188 0.0 8.0 0.00 0.97 0.50 84 1008.9
20260830103810 68 228 0.0 8.0 0.00 0.97 0.50 83 1008.9
20260830103311 68 218 0.0 0.0 0.00 0.97 0.50 83 1008.9
20260830102811 69 148 0.0 8.0 0.00 0.97 0.50 83 1008.8
20260830102308 69 240 0.0 8.0 0.00 0.97 0.50 84 1008.8
20260830101813 69 239 0.0 6.0 0.00 0.97 0.50 86 1008.6
20260830101309 68 253 0.0 7.0 0.00 0.97 0.50 87 1008.6
20260830100814 67 254 0.0 7.0 0.00 0.97 0.50 85 1008.6
20260830100329 67 172 0.0 5.0 0.00 0.97 0.50 87 1008.6
20260830095808 67 165 0.0 7.0 0.00 0.97 0.50 87 1008.5
20260830095306 67 236 0.0 7.0 0.00 0.97 0.50 87 1008.5
20260830094807 67 39 0.0 1.0 0.00 0.97 0.50 88 1008.4
20260830093721 66 154 0.0 0.0 0.00 0.97 0.50 88 1008.3
20260830093211 67 166 0.0 0.0 0.00 0.97 0.50 89 1008.2
20260830092707 66 180 0.0 6.0 0.00 0.97 0.50 89 1008.2
20260830091706 67 239 0.0 3.0 0.00 0.97 0.50 88 1008.2
20260830091134 67 220 0.0 4.0 0.00 0.97 0.50 88 1008.1
20260830090636 67 249 0.0 4.0 0.00 0.97 0.50 88 1008.0
20260830085110 67 262 1.0 5.0 0.00 0.97 0.50 87 1007.8
20260830084613 67 270 0.0 0.0 0.00 0.97 0.50 87 1007.7
20260830084108 66 235 0.0 6.0 0.00 0.97 0.50 87 1007.6
20260830083609 66 252 0.0 6.0 0.00 0.97 0.50 87 1007.6
20260830083110 66 174 0.0 5.0 0.00 0.97 0.50 87 1007.6
20260830082609 66 246 0.0 5.0 0.00 0.97 0.50 87 1007.5
20260830082124 67 249 0.0 5.0 0.00 0.97 0.50 87 1007.5
20260830081612 67 248 0.0 5.0 0.00 0.97 0.50 87 1007.3
20260830081111 67 238 0.0 4.0 0.00 0.97 0.50 87 1007.3
20260830080612 67 245 0.0 5.0 0.00 0.97 0.50 88 1007.2
20260830080112 66 245 0.0 5.0 0.00 0.97 0.50 88 1007.1
20260830075606 66 258 0.0 5.0 0.00 0.97 0.50 87 1007.0
20260830075034 66 231 0.0 5.0 0.00 0.97 0.50 87 1007.0
20260830074538 66 231 1.0 8.0 0.00 0.97 0.50 87 1007.0
20260830074036 66 252 0.0 8.0 0.00 0.97 0.50 87 1006.9
20260830073528 66 237 0.0 4.0 0.00 0.97 0.50 88 1006.8
20260830073029 66 259 0.0 5.0 0.00 0.97 0.50 88 1006.8
20260830072526 66 215 0.0 5.0 0.00 0.97 0.50 88 1006.7
20260830072024 66 256 0.0 4.0 0.00 0.97 0.50 88 1006.6
20260830071515 66 256 0.0 4.0 0.00 0.97 0.50 88 1006.5
20260830071028 66 254 0.0 4.0 0.00 0.97 0.50 88 1006.4
20260830070009 66 244 1.0 5.0 0.00 0.97 0.50 88 1006.3
20260830065521 66 250 0.0 5.0 0.00 0.97 0.50 88 1006.3
20260830065022 66 139 0.0 3.0 0.00 0.97 0.50 89 1006.2
20260830064517 66 139 0.0 3.0 0.00 0.97 0.50 89 1006.2
20260830064022 66 276 0.0 0.0 0.00 0.97 0.50 89 1006.1
20260830063529 65 127 0.0 3.0 0.00 0.97 0.50 88 1006.0
20260830063017 65 236 0.0 3.0 0.00 0.97 0.50 88 1006.0
20260830062517 65 260 0.0 4.0 0.00 0.97 0.50 88 1005.9
20260830061516 65 160 0.0 1.0 0.00 0.97 0.50 88 1005.8
20260830061024 65 247 0.0 0.0 0.00 0.97 0.50 88 1005.7
20260830060523 65 131 0.0 0.0 0.00 0.97 0.50 88 1005.6
20260830060021 65 131 0.0 4.0 0.00 0.97 0.50 88 1005.6
20260830055526 65 138 0.0 4.0 0.00 0.97 0.50 88 1005.5
20260830055019 65 169 0.0 1.0 0.00 0.97 0.50 88 1005.4
20260830054518 65 174 0.0 1.0 0.00 0.97 0.50 88 1005.4
20260830054026 65 186 0.0 4.0 0.00 0.97 0.50 88 1005.4
20260830053524 65 133 0.0 4.0 0.00 0.97 0.50 88 1005.3
20260830053024 65 217 0.0 8.0 0.00 0.97 0.50 88 1005.3
20260830052525 65 213 0.0 8.0 0.00 0.97 0.50 88 1005.2
20260830051546 65 203 0.0 6.0 0.00 0.97 0.50 88 1005.0
20260830051016 65 159 0.0 6.0 0.00 0.97 0.50 88 1005.0
20260830050525 65 257 1.0 2.0 0.00 0.97 0.50 88 1004.9
20260830050007 65 191 1.0 6.0 0.00 0.97 0.50 88 1004.8
20260830045514 65 190 0.0 6.0 0.00 0.97 0.50 88 1004.7
20260830045026 65 113 0.0 5.0 0.00 0.97 0.50 88 1004.7
20260830044514 65 188 0.0 4.0 0.00 0.97 0.50 88 1004.6
20260830044021 65 191 0.0 4.0 0.00 0.97 0.50 88 1004.6
20260830043524 65 195 0.0 2.0 0.00 0.97 0.50 88 1004.5
20260830042525 66 193 0.0 7.0 0.00 0.97 0.50 88 1004.3
20260830042029 66 178 0.0 1.0 0.00 0.97 0.50 89 1004.3